Total_Precipitation_Accumulation
0.12 0.15 0.19 0.17 0.19 0.22 0.27 0.41 0.58 0.42 0.11 0.03 0.04 0.08 0.13 0.15 0.16 0.15 0.13 0.14 0.18 0.24 0.30 0.31 0.29 0.34 0.53 1.02 1.91 3.18 3.82 3.17 2.23 1.78 1.57 1.62 1.82 2.15
0.16 0.20 0.21 0.21 0.22 0.23 0.29 0.33 0.47 0.58 0.34 0.05 0.04 0.08 0.18 0.19 0.17 0.15 0.15 0.16 0.16 0.17 0.20 0.23 0.26 0.29 0.37 0.57 1.02 1.80 2.98 3.60 3.16 2.40 1.87 1.78 1.86 2.10
0.18 0.22 0.23 0.26 0.29 0.26 0.29 0.32 0.33 0.40 0.38 0.10 0.03 0.05 0.15 0.21 0.20 0.15 0.15 0.16 0.15 0.16 0.18 0.21 0.24 0.29 0.38 0.48 0.67 1.05 1.73 2.70 3.31 3.08 2.50 2.09 1.92 1.91
0.20 0.24 0.26 0.25 0.26 0.24 0.27 0.28 0.25 0.24 0.30 0.18 0.05 0.05 0.10 0.18 0.27 0.27 0.21 0.19 0.18 0.18 0.20 0.24 0.29 0.31 0.35 0.43 0.57 0.78 1.14 1.69 2.45 2.92 2.82 2.44 2.10 1.99
0.23 0.26 0.26 0.26 0.25 0.22 0.27 0.27 0.22 0.19 0.24 0.25 0.12 0.06 0.10 0.13 0.24 0.34 0.30 0.26 0.23 0.21 0.22 0.23 0.29 0.34 0.33 0.34 0.43 0.58 0.78 1.03 1.45 2.21 2.73 2.64 2.42 2.24
0.17 0.17 0.24 0.34 0.33 0.31 0.34 0.28 0.24 0.26 0.28 0.30 0.20 0.12 0.13 0.15 0.24 0.36 0.40 0.38 0.32 0.26 0.25 0.24 0.28 0.37 0.37 0.29 0.26 0.32 0.50 0.80 1.10 1.51 2.14 2.55 2.47 2.34
0.11 0.10 0.19 0.32 0.36 0.49 0.59 0.49 0.45 0.49 0.43 0.40 0.34 0.27 0.24 0.27 0.31 0.33 0.46 0.49 0.43 0.37 0.31 0.26 0.26 0.26 0.28 0.27 0.25 0.25 0.31 0.47 0.75 1.09 1.48 1.95 2.33 2.38
0.11 0.08 0.11 0.22 0.25 0.30 0.42 0.49 0.54 0.63 0.62 0.57 0.52 0.44 0.36 0.34 0.34 0.39 0.44 0.53 0.55 0.49 0.43 0.32 0.31 0.33 0.29 0.27 0.29 0.26 0.29 0.35 0.53 0.82 1.13 1.43 1.83 2.22
0.09 0.07 0.08 0.16 0.22 0.29 0.33 0.34 0.37 0.46 0.60 0.64 0.64 0.48 0.40 0.35 0.39 0.45 0.44 0.49 0.55 0.63 0.66 0.53 0.40 0.39 0.37 0.42 0.46 0.36 0.32 0.34 0.43 0.62 0.88 1.13 1.40 1.74
0.05 0.06 0.06 0.11 0.23 0.41 0.42 0.37 0.33 0.38 0.54 0.65 0.80 0.71 0.55 0.51 0.63 0.72 0.70 0.57 0.47 0.59 0.74 0.74 0.58 0.48 0.52 0.56 0.56 0.46 0.38 0.35 0.40 0.54 0.72 0.90 1.12 1.38
0.03 0.04 0.06 0.10 0.21 0.38 0.39 0.29 0.21 0.23 0.30 0.45 0.59 0.66 0.63 0.64 0.75 0.90 0.89 0.70 0.58 0.63 0.76 0.86 0.85 0.72 0.77 0.84 0.76 0.61 0.46 0.42 0.43 0.50 0.59 0.69 0.87 1.19
0.05 0.03 0.06 0.15 0.23 0.31 0.30 0.25 0.30 0.29 0.25 0.23 0.26 0.34 0.41 0.46 0.60 0.83 1.01 0.89 0.71 0.80 0.87 0.88 1.04 0.97 1.05 1.10 0.97 0.73 0.54 0.50 0.51 0.52 0.51 0.53 0.64 0.83
0.07 0.05 0.05 0.15 0.21 0.22 0.23 0.25 0.42 0.37 0.22 0.20 0.20 0.24 0.29 0.38 0.52 0.69 0.91 1.05 0.90 0.82 0.87 0.94 1.17 1.09 1.04 1.09 1.07 0.99 0.70 0.52 0.51 0.58 0.59 0.54 0.52 0.53
0.08 0.05 0.06 0.11 0.12 0.14 0.17 0.25 0.25 0.20 0.18 0.18 0.17 0.20 0.27 0.36 0.47 0.62 0.83 0.99 1.01 0.89 0.79 0.87 1.17 1.14 0.96 0.88 0.97 1.11 0.96 0.71 0.57 0.57 0.60 0.72 0.69 0.61
0.08 0.07 0.07 0.08 0.07 0.07 0.11 0.16 0.17 0.19 0.24 0.22 0.19 0.22 0.28 0.38 0.42 0.46 0.60 0.84 0.98 0.99 0.93 0.91 1.12 1.22 1.09 0.91 0.85 1.01 1.10 1.01 0.78 0.69 0.66 0.64 0.58 0.52
0.14 0.10 0.09 0.08 0.08 0.06 0.05 0.07 0.11 0.16 0.21 0.20 0.20 0.19 0.19 0.24 0.35 0.46 0.54 0.70 0.90 1.03 1.07 1.12 1.29 1.47 1.35 1.08 0.93 0.92 0.93 1.07 1.01 0.87 0.77 0.70 0.60 0.43
0.17 0.20 0.15 0.13 0.13 0.11 0.07 0.05 0.05 0.08 0.10 0.10 0.13 0.16 0.16 0.20 0.28 0.39 0.55 0.69 0.86 1.03 1.15 1.30 1.42 1.55 1.59 1.51 1.33 1.08 0.89 0.87 0.96 0.95 0.90 0.87 0.79 0.59
0.19 0.22 0.14 0.10 0.10 0.10 0.08 0.06 0.04 0.04 0.05 0.06 0.09 0.14 0.19 0.23 0.26 0.32 0.45 0.64 0.84 0.97 1.06 1.21 1.35 1.48 1.67 1.83 1.68 1.30 1.01 0.89 0.97 1.05 0.98 0.93 0.96 0.81
0.21 0.16 0.09 0.08 0.08 0.07 0.08 0.07 0.05 0.03 0.03 0.04 0.06 0.10 0.15 0.19 0.23 0.27 0.36 0.51 0.72 0.90 1.01 1.09 1.19 1.31 1.46 1.74 1.92 1.60 1.22 0.98 0.99 1.19 1.21 1.02 0.91 0.87
0.17 0.13 0.09 0.07 0.07 0.08 0.08 0.07 0.06 0.04 0.03 0.03 0.04 0.05 0.09 0.15 0.19 0.23 0.31 0.45 0.61 0.78 0.89 1.00 1.15 1.27 1.32 1.34 1.51 1.68 1.59 1.23 1.00 1.14 1.33 1.26 1.15 1.12
0.11 0.09 0.08 0.08 0.07 0.08 0.08 0.07 0.07 0.05 0.04 0.03 0.03 0.04 0.06 0.09 0.15 0.19 0.26 0.36 0.49 0.64 0.76 0.86 1.03 1.18 1.31 1.25 1.20 1.35 1.59 1.61 1.23 1.07 1.19 1.26 1.29 1.27
0.08 0.08 0.07 0.07 0.07 0.08 0.07 0.07 0.06 0.05 0.04 0.03 0.03 0.03 0.04 0.06 0.10 0.15 0.21 0.28 0.38 0.52 0.68 0.79 0.91 1.08 1.29 1.39 1.37 1.33 1.45 1.63 1.65 1.44 1.27 1.13 1.01 0.98
0.10 0.09 0.08 0.08 0.07 0.07 0.07 0.06 0.06 0.05 0.04 0.03 0.03 0.03 0.03 0.04 0.07 0.11 0.16 0.22 0.31 0.41 0.54 0.70 0.85 0.99 1.20 1.39 1.48 1.43 1.36 1.42 1.51 1.55 1.66 1.48 1.04 0.74